Regional Weather Roundup
Issued by NWS

Home | Current Version | Previous Version | Graphics & Text | Print | Product List | Glossary On
Versions: 1 2 3 4 5 6 7 8 9 10 11 12 13 14 15 16 17 18 19 20 21 22 23 24 25 26 27 28 29 30 31 32 33 34 35 36 37 38 39 40 41 42 43 44 45 46 47 48 49 50
610
ASUS45 KBOU 012107
RWRCO

WEATHER ROUNDUP FOR COLORADO
NATIONAL WEATHER SERVICE DENVER/BOULDER CO
300 PM MDT SUN MAY 01 2016

NOTE: "FAIR" INDICATES FEW OR NO CLOUDS BELOW 12000 FEET WITH NO
SIGNIFICANT WEATHER AND/OR OBSTRUCTIONS TO VISIBILITY.

COZ001>005-013-030-031-012200-
...NORTHWEST COLORADO...

CITY           SKY/WX    TMP DP  RH WIND       PRES   REMARKS
CRAIG          FAIR      56  24  29 E12       30.06F
HAYDEN         FAIR      52  25  35 E16       30.07F
MEEKER         CLOUDY    57  27  31 NW8       30.04S
MOUNT WERNER   NOT AVBL
STEAMBOAT SPGS FAIR      49  24  37 E15G22    30.09F
WALDEN         FAIR      41  21  45 NE18G30   30.16S
$$

COZ006>008-011-012200-
...WEST CENTRAL VALLEYS...

CITY           SKY/WX    TMP DP  RH WIND       PRES   REMARKS
GRAND JUNCTION FAIR      59  30  33 SW5       30.02S
MONTROSE       PTSUNNY   54  25  32 VRB3      30.04S
EAGLE          PTSUNNY   54  21  28 CALM      30.05F
RIFLE          PTSUNNY   62  25  24 NE10      29.99F
DELTA          NOT AVBL
NUCLA          NOT AVBL
$$

COZ017>023-064>068-012200-
...SOUTHWEST COLORADO...

CITY           SKY/WX    TMP DP  RH WIND       PRES   REMARKS
DURANGO        CLOUDY    39  37  92 E5        30.11S
CORTEZ         FAIR      52  37  56 SE20G25   30.07R
PAGOSA SPRINGS CLOUDY    39  33  80 CALM      30.13S
TELLURIDE      CLOUDY    39  34  82 W7        30.11R
WOLF CREEK PAS SNOW      23  23 100 NE7       30.21R VSB 1/4 WCI  15
$$

COZ009-010-012-014-032>034-037-058>063-012200-
...CENTRAL COLORADO...

CITY           SKY/WX    TMP DP  RH WIND       PRES   REMARKS
ASPEN          CLOUDY    48  21  34 S14G21    30.06F
BUENA VISTA    CLOUDY    37  20  52 NE5       30.21S
COPPER MTN     NOT AVBL
BERTHOUD PASS  CLOUDY    14   5  67 MISG      30.20R
COTTONWOOD PAS LGT SNOW  32  23  69 CALM      30.22S
GUNNISON       FAIR      41  21  45 E10G21    30.15R
KREMMLING      FAIR      50  19  29 NE10G24   30.13F
LEADVILLE      LGT SNOW  26  19  74 S12       30.17F WCI  16
MONARCH PASS   CLOUDY    19  18  93 MISG      30.28R
SALIDA         CLOUDY    38  32  77 E3        30.29F
SUNLIGHT       CLOUDY    34  28  80 CALM      30.18S
WILKERSON PASS SNOW     N/A N/A N/A E7        30.25S VSB<1/4
$$

COZ069>075-012200-
...SAN LUIS VALLEY/SANGRE DE CRISTO MOUNTAINS...

CITY           SKY/WX    TMP DP  RH WIND       PRES   REMARKS
ALAMOSA        CLOUDY    40  27  59 E23       30.14R
LA VETA PASS   SNOW      27  21  80 MISG      30.21S VSB 1/4
SAGUACHE       CLOUDY    41  27  56 SW5       30.16S
$$

COZ035-036-038>040-012200-
...NORTHERN COLORADO FRONT RANGE...

CITY           SKY/WX    TMP DP  RH WIND       PRES   REMARKS
DENVER INTL AP CLOUDY    40  28  62 W9        30.28F
DMNS CITY PARK   N/A     37  31  77 MISG      30.30F
AURORA         LGT RAIN  36  34  93 NW5       30.30S
FRONT RANGE AP CLOUDY    37  30  75 W3        30.29S
ERIE MUNI ARPT CLOUDY    40  33  75 CALM      30.30S
BOULDER MUN AP CLOUDY    39  30  70 W3        30.29F
CENTENNIAL     FLURRIES  34  31  88 N5        30.29S WCI  30
BROOMFIELD     CLOUDY    37  32  81 W3        30.30F
FORT COLLINS   CLOUDY    43  27  52 N9        30.29F
LONGMONT       CLOUDY    46  31  54 W3        30.31S HAZE
$$

COZ041-046-047-076>085-087-088-012200-
...PIKES PEAK/PALMER DIVIDE AND SOUTHERN FOOTHILLS...

CITY           SKY/WX    TMP DP  RH WIND       PRES   REMARKS
COLO. SPRINGS  CLOUDY    38  28  67 N14       30.27S
A. F. ACADEMY  CLOUDY    32  28  86 N15G22    30.25F WCI  22
SCHRIEVER AFB  NOT AVBL
ELLICOTT       NOT AVBL
FALCON         CLOUDY    36  28  72 N12       30.27S
FORT CARSON    CLOUDY    41  29  62 N16G23    30.25S
LIMON          PTSUNNY   36  29  75 N10       30.27S
MONUMENT HILL  CLOUDY    30  27  86 N8        30.29R WCI  23
TRINIDAD       LGT SNOW  36  32  85 N12       30.27S FOG
$$

COZ042>045-048>051-090-091-012200-
...NORTHEAST COLORADO...

CITY           SKY/WX    TMP DP  RH WIND       PRES   REMARKS
GREELEY ARPT   CLOUDY    45  27  49 N5        30.29S
AKRON          FAIR      39  30  70 NE8       30.27R
BURLINGTON     CLOUDY    47  30  51 N17       30.23R
WRAY           NOT AVBL
STERLING       FAIR      48  30  49 N15G23    30.25S
HOLYOKE        NOT AVBL
FORT MORGAN    CLOUDY    48  25  41 N12       30.28S
$$

COZ086-089-092>099-012200-
...SOUTHEAST COLORADO...

CITY           SKY/WX    TMP DP  RH WIND       PRES   REMARKS
PUEBLO         CLOUDY    46  30  53 NE14      30.27S
LA JUNTA       CLOUDY    46  31  55 N16       30.26S
LAMAR          CLOUDY    47  33  58 N12       30.22F
SPRINGFIELD      N/A     42  34  73 N17       30.21F
$$




USA.gov is the U.S. government's official web portal to all federal, state and local government web resources and services.